Powrót do katalogu

NAOS

AktywnyNaukaSSO
NORAD 65317·PAYLOAD·🇱🇺 Luxembourg

Wystrzelony Aug 26, 2025 z Vandenberg Space Force Base

Loading…

Następne Przeloty (najbliższe 24 godziny)

TLE

ŚwieżeSource: Space-Track

Epoka: Sep 14, 2026, 14:55 UTC

1 65317U 25188C   26257.62215745  .00007318  00000-0  19487-3 0  9991
2 65317  97.1961 331.3272 0001271  90.7549 269.3843 15.38480180 59011

Śledź NAOS w czasie rzeczywistym z AllMySat

Download on the App Store